User: anonymous   Login
Location: Theydon Bois
(51.6750°N, 0.1050°E)
Time: 12:31:47
(UTC+00:00)
Language:

MTI - Orbit

View from above orbital plane
View from above orbital plane
View from above satellite
View from above satellite

Ground track
Ground track

The orbit data is extracted from the following two-line orbital elements,

1 26102U 00014A   18053.51453757 +.00003761 +00000-0 +70145-4 0  9998
2 26102 097.5802 241.8194 0008986 083.4010 350.0636 15.49465659993255
Epoch (UTC): 22 February 2018 12:20:56
Eccentricity: 0.0008986
inclination: 97.5802°
perigee height: 412 km
apogee height: 424 km
right ascension of ascending node: 241.8194°
argument of perigee: 83.4010°
revolutions per day: 15.49465659
mean anomaly at epoch: 350.0636°
orbit number at epoch: 99325

The dashed part of the orbit path shows where the satellite is in the earth's shadow,  

DLR